Terminal Aerodrome Forecast
Issued by NWS Columbia, SC

Home | Current Version | Previous Version | Text Only | Print | Product List | Glossary On
Versions: 1 2 3 4 5 6 7 8 9 10 11 12 13 14 15 16 17 18 19 20 21 22 23 24 25 26 27 28 29 30 31 32 33 34 35 36 37 38 39 40 41 42 43 44 45 46 47 48 49 50
722
FTAK31 PAJN 250109 AAA
TAFAGS
TAF AMD
PAGS 250109Z 2501/2524 VRB04KT P6SM -SHRA FEW007 SCT025 OVC040
      TEMPO 2501/2505 2SM -SHRA BR BKN006 BKN025 OVC035
     FM250500 16005KT 6SM BCFG FEW001 FEW007 OVC025
      TEMPO 2511/2515 1SM BR BKN006
     FM252100 16005KT P6SM SCT025
      AMD LTD TO CLD VIS AND WIND=

USA.gov is the U.S. government's official web portal to all federal, state and local government web resources and services.